TimeAKST,TemperatureF,Dew PointF,Humidity,Sea Level PressureIn,VisibilityMPH,Wind Direction,Wind SpeedMPH,Gust SpeedMPH,PrecipitationIn,Events,Conditions,WindDirDegrees,DateUTC
12:55 AM,16.7,13.6,88,30.02,10.0,NNE,21.9,-,N/A,,Clear,30,2012-11-18 09:55:00
1:55 AM,12.4,10.0,90,30.03,10.0,NNE,18.4,-,N/A,,Clear,30,2012-11-18 10:55:00
2:55 AM,11.3,8.6,89,30.03,10.0,NNE,19.6,-,N/A,,Clear,30,2012-11-18 11:55:00
3:55 AM,11.5,9.3,91,30.04,10.0,NNE,20.7,-,N/A,,Clear,30,2012-11-18 12:55:00
4:55 AM,12.4,9.5,88,30.04,10.0,NNE,21.9,-,N/A,,Clear,30,2012-11-18 13:55:00
5:55 AM,13.6,9.9,85,30.06,10.0,NNE,23.0,-,N/A,,Clear,30,2012-11-18 14:55:00
6:55 AM,12.9,9.5,86,30.07,10.0,NNE,21.9,-,N/A,,Clear,30,2012-11-18 15:55:00
7:55 AM,12.9,9.7,87,30.08,10.0,NNE,23.0,-,N/A,,Clear,30,2012-11-18 16:55:00
8:55 AM,13.5,9.7,85,30.10,10.0,NNE,20.7,-,N/A,,Clear,30,2012-11-18 17:55:00
9:55 AM,14.7,9.0,78,30.12,10.0,NNE,20.7,-,N/A,,Clear,30,2012-11-18 18:55:00
10:55 AM,16.3,13.6,89,30.11,10.0,NNE,26.5,-,N/A,,Clear,30,2012-11-18 19:55:00
11:55 AM,16.3,14.2,91,30.12,10.0,NNE,29.9,-,N/A,,Clear,20,2012-11-18 20:55:00
12:55 PM,16.2,14.0,91,30.13,10.0,NNE,26.5,-,N/A,,Clear,30,2012-11-18 21:55:00
1:55 PM,16.2,14.0,91,30.14,10.0,NNE,26.5,-,N/A,,Clear,30,2012-11-18 22:55:00
2:55 PM,17.1,15.1,92,30.13,10.0,NNE,26.5,-,N/A,,Clear,20,2012-11-18 23:55:00
3:55 PM,14.4,12.6,93,30.14,10.0,NE,25.3,-,N/A,,Clear,40,2012-11-19 00:55:00
4:55 PM,16.2,14.2,92,30.17,10.0,NNE,24.2,-,N/A,,Clear,20,2012-11-19 01:55:00
5:55 PM,14.2,12.4,93,30.19,10.0,NNE,23.0,-,N/A,,Clear,30,2012-11-19 02:55:00
6:55 PM,15.8,12.9,88,30.19,10.0,NNE,23.0,-,N/A,,Clear,30,2012-11-19 03:55:00
7:55 PM,12.6,10.6,92,30.22,10.0,NNE,20.7,-,N/A,,Clear,30,2012-11-19 04:55:00
8:55 PM,14.5,12.2,90,30.22,10.0,NNE,20.7,-,N/A,,Clear,30,2012-11-19 05:55:00
9:55 PM,13.3,11.7,93,30.22,10.0,NNE,20.7,-,N/A,,Clear,30,2012-11-19 06:55:00
10:55 PM,14.0,11.1,88,30.24,10.0,NNE,17.3,-,N/A,,Clear,30,2012-11-19 07:55:00
11:55 PM,15.1,12.2,88,30.25,10.0,NNE,19.6,-,N/A,,Clear,20,2012-11-19 08:55:00